Flag for Japan Weather past 2 weeks in Nagasaki, Japan

Now
63 °F

Broken clouds.


Feels Like: 63 °F
Forecast: 54 / 69 °F
Wind: 13 mph from North

Location: Nagasaki Airport

Current Time: Apr 1, 2015 at 3:39:58 PM

Latest Report: Apr 1, 2015 at 3:00 PM


Visibility: N/A

Pressure: 29.86 "Hg

Humidity: 94%

Dew point: 61 °F

Location of NagasakiLocation

Historic Weather in Nagasaki — Graph

°F

Nagasaki temperature yesterday

Maximum temperature yesterday: 68 °F (at 11:00 AM)
Minimum temperature yesterday: 55 °F (at 7:00 AM)
Average temperature yesterday: 62 °F

Past Weeks' High & Low Weather Summary

 TemperatureHumidityPressure
High73 °F (Mar 17, 3:00 PM)100% (Mar 18, 9:00 AM)30.54 "Hg (Mar 18, 9:00 AM)
Low39 °F (Mar 25, 7:00 AM)15% (Mar 26, 2:00 PM)29.74 "Hg (Mar 18, 5:00 PM)
Average59 °F64%30.10 "Hg
* Reported Mar 17 2:00 PM — Apr 1 2:00 PM, Nagasaki, Weather by CustomWeather, © 2015

Note: Actual official high and low records may vary slightly from our data, if they occured in-between our weather recording intervals... More about our weather records

Advertising

Nagasaki weather history for previous 24 hours

 ConditionsComfort  
Time TempWeatherWind HumidityBarometerVisibility
2:00 PM
Wed, Apr 1
66 °FSprinkles. Broken clouds.10 mph94%29.89 "Hg5 mi
1:00 PM64 °FDrizzle. Fog.6 mph100%29.92 "Hg0 mi
12:47 PM66 °FDrizzle. Fog.3 mph100%29.89 "Hg1 mi
12:00 PM66 °FRain showers. Fog.3 mph100%29.92 "Hg2 mi
11:04 AM66 °FDrizzle. Fog.2 mph100%29.92 "Hg2 mi
11:00 AM66 °FDrizzle. Fog.2 mph100%29.92 "Hg3 mi
10:00 AM64 °FSprinkles. Fog.3 mph100%29.92 "Hg1 mi
9:00 AM63 °FSprinkles. Fog.5 mph100%29.92 "Hg1 mi
8:02 AM63 °FRain showers. Fog.6 mph100%29.92 "Hg2 mi
8:00 AM63 °FSprinkles. Fog.6 mph100%29.92 "Hg3 mi
7:49 AM63 °FRain showers. Fog.6 mph100%29.92 "Hg2 mi
7:00 AM63 °FSprinkles. Broken clouds.7 mph100%29.92 "HgN/A
9:00 PM
Tue, Mar 31
63 °FSprinkles. Partly cloudy.10 mph94%29.98 "Hg5 mi
8:00 PM63 °FSprinkles. Passing clouds.9 mph94%29.98 "Hg4 mi
7:00 PM61 °FSprinkles. Partly cloudy.7 mph100%29.98 "Hg4 mi
6:00 PM61 °FSprinkles. Partly sunny.8 mph94%29.98 "Hg4 mi
5:00 PM61 °FSprinkles. Broken clouds.13 mph94%29.98 "Hg5 mi
4:00 PM61 °FSprinkles. Partly sunny.13 mph94%29.98 "HgN/A
3:00 PM61 °FSprinkles. Partly sunny.12 mph88%30.01 "Hg6 mi
Weather by CustomWeather, © 2015

See weather overviewHow to use our weather pages